Regional Weather Roundup
Issued by NWS Boston, MA

Current Version | Previous Version | Text Only | Print | Product List | Glossary Off
Versions: 1 2 3 4 5 6 7 8 9 10 11 12 13 14 15 16 17 18 19 20 21 22 23 24 25 26 27 28 29 30 31 32 33 34 35 36 37 38 39 40 41 42 43 44 45 46 47 48 49 50
195 ASUS41 KBOX 240910 RWRBOX REGIONAL WEATHER ROUNDUP NATIONAL WEATHER SERVICE BOSTON/NORTON MA 500 AM EDT SUN JUN 24 2018 NOTE: "FAIR" INDICATES FEW OR NO CLOUDS BELOW 12,000 FEET WITH NO SIGNIFICANT WEATHER AND/OR OBSTRUCTIONS TO VISIBILITY. MAZALL-241000- EASTERN MASSACHUSETTS CITY SKY/WX TMP DP RH WIND PRES REMARKS BOSTON CLOUDY 60 56 86 CALM 29.80F BEVERLY CLOUDY 57 55 93 CALM 29.80S LAWRENCE CLOUDY 59 52 77 CALM 29.81F BEDFORD CLOUDY 57 55 93 CALM 29.80R BLUE HILL N/A 56 56 100 SW5 29.80S NORWOOD CLOUDY 60 58 92 CALM 29.80S MARSHFIELD CLOUDY 57 57 100 CALM 29.81R FOG PLYMOUTH CLOUDY 58 58 100 CALM 29.81S FOG TAUNTON CLOUDY 60 58 92 CALM 29.80S FOG NEW BEDFORD CLOUDY 59 59 100 CALM 29.80R $$ MAZALL-241000- CAPE COD AND THE ISLANDS CITY SKY/WX TMP DP RH WIND PRES REMARKS FALMOUTH CLOUDY 59 59 100 CALM 29.82R HYANNIS CLOUDY 59 59 100 N5 29.80R FOG CHATHAM CLOUDY 60 58 92 VRB3 29.81R FOG PROVINCETOWN CLOUDY 58 57 97 N7 29.81S NANTUCKET CLOUDY 60 60 100 N6 29.81R FOG MARTHAS VNYRD CLOUDY 61 60 97 CALM 29.81R FOG $$ MAZALL-241000- CENTRAL AND WESTERN MASSACHUSETTS CITY SKY/WX TMP DP RH WIND PRES REMARKS WORCESTER FOG 56 55 97 SW8 29.81S VSB 3/4 FITCHBURG CLOUDY 56 56 100 SE3 29.81R ORANGE CLOUDY 56 56 100 CALM 29.82S FOG SPRINGFIELD CLOUDY 58 56 96 CALM 29.80S WESTFIELD CLOUDY 58 58 100 CALM 29.80F NORTH ADAMS CLOUDY 59 55 87 E7 29.81R PITTSFIELD FOG 56 55 97 CALM 29.81S VSB 1/2 $$ RIZALL-241000- RHODE ISLAND CITY SKY/WX TMP DP RH WIND PRES REMARKS PROVIDENCE CLOUDY 60 57 89 CALM 29.81S NEWPORT CLOUDY 61 59 93 CALM 29.81R BLOCK ISLAND CLOUDY 60 60 100 S5 29.83R SMITHFIELD CLOUDY 57 55 94 CALM 29.81S WESTERLY FAIR 61 60 97 CALM 29.82S $$ CTZALL-241000- CONNECTICUT CITY SKY/WX TMP DP RH WIND PRES REMARKS BRADLEY INTL CLOUDY 59 57 93 CALM 29.81S HARTFORD CLOUDY 60 58 92 S3 29.81S BRIDGEPORT CLOUDY 63 61 93 S3 29.81S DANBURY CLOUDY 62 61 96 CALM 29.83S GROTON CLOUDY 60 58 92 CALM 29.81S NEW HAVEN CLOUDY 61 59 93 CALM 29.82S CHESTER CLOUDY 61 61 100 CALM 29.83R FOG MERIDEN CLOUDY 59 57 93 SE3 29.82S WILLIMANTIC CLOUDY 61 58 90 CALM 29.82R OXFORD CLOUDY 59 57 94 S3 29.84R FOG $$ MEZ002-015-021-024-NHZ003-005-008-011-012-014-VTZ005-008-241000- NORTHERN NEW ENGLAND CITY SKY/WX TMP DP RH WIND PRES REMARKS PORTLAND ME MOCLDY 55 54 96 CALM 29.79S BANGOR ME CLOUDY 53 52 96 CALM 29.77S CONCORD NH CLOUDY 54 52 93 CALM 29.79F MANCHESTER NH CLOUDY 57 53 86 S5 29.78F NASHUA NH CLOUDY 56 55 97 CALM 29.80F PORTSMOUTH NH CLOUDY 55 52 92 S3 29.78F JAFFREY NH CLOUDY 55 55 100 S5 29.81S FOG KEENE NH CLOUDY 56 54 93 CALM 29.81S BURLINGTON VT CLOUDY 60 57 89 S6 29.77S MT. WASHINGTON DRZL/FOG 48 48 100 W35 N/A VSB 0 $$ NYZ052-076-241000- EASTERN NEW YORK CITY SKY/WX TMP DP RH WIND PRES REMARKS ALBANY CLOUDY 62 59 90 S7 29.79S NEW YORK CITY CLOUDY 67 62 84 S6 29.81S $$ ANZALL-241000- MARINE OBSERVATIONS STATION/POSITION TIME TEMP WIND PRES VSBY WAVE AIR SEA DIR/SP/G HT/PER (UTC) (F) (DEG/KT/KT) (MB) (MI) (FT/S) BOSTON BUOY 0850 58 62 280/ 4/ 4 1009.2S 2/ 8 BUZZARDS BAY 0800 59 340/ 5/ 5 1009.8F NANTUCKET SOUND 0850 60 65 340/ 8/ 10 1009.4R 1/ 2 MASS BAY-STELLWA 0804 55 57 1007.7F 2/ 5 ISLE OF SHOALS 0900 56 260/ 5/ 5 1008.7S S OF BLOCK IS 0843 61 N/A 3/ 7 $$ ......................KEY......................... SKY/WX - SKY CONDITION/PRESENT WEATHER TMP - TEMPERATURE IN FAHRENHEIT DWPT - DEWPOINT IN FAHRENHEIT RH - RELATIVE HUMIDITY IN PERCENT WIND - DIRECTION AND SPEED IN MPH PRES - MEAN SEA LEVEL PRESSURE IN INCHES OF HG WCI - WIND CHILL INDEX VSB - VISIBILITY IN MILES HX - HEAT INDEX TC - TEMPERATURE IN CELSIUS VRB - VARIABLE WIND DIRECTION N/A - NOT AVAILABLE

USA.gov is the U.S. government's official web portal to all federal, state and local government web resources and services.